Time,TemperatureF,DewpointF,PressureIn,WindDirection,WindDirectionDegrees,WindSpeedMPH,WindSpeedGustMPH,Humidity,HourlyPrecipIn,Conditions,Clouds,dailyrainin,SoftwareType,DateUTC
2013-04-19 00:01:00,46.0,45.0,30.24,West,270,0.0,1.0,98,0.06,,,0.38,,2013-04-19 07:01:00,
2013-04-19 00:11:00,46.0,45.0,30.23,SW,225,0.0,3.0,98,0.05,,,0.39,,2013-04-19 07:11:00,
2013-04-19 00:21:00,46.0,45.0,30.23,SW,225,0.0,3.0,98,0.05,,,0.39,,2013-04-19 07:21:00,
2013-04-19 00:31:00,46.0,46.0,30.22,SW,225,0.0,3.0,99,0.05,,,0.41,,2013-04-19 07:31:00,
2013-04-19 00:41:00,46.0,46.0,30.22,SW,225,0.0,3.0,99,0.05,,,0.41,,2013-04-19 07:41:00,
2013-04-19 00:52:00,46.0,46.0,30.22,North,-999,0.0,0.0,99,0.04,,,0.41,,2013-04-19 07:52:00,
2013-04-19 01:02:00,46.0,46.0,30.22,North,0,0.0,1.0,99,0.06,,,0.44,,2013-04-19 08:02:00,
2013-04-19 01:12:00,46.0,46.0,30.21,East,90,0.0,1.0,99,0.07,,,0.46,,2013-04-19 08:12:00,
2013-04-19 01:21:00,46.0,46.0,30.21,East,90,0.0,1.0,99,0.07,,,0.46,,2013-04-19 08:21:00,
2013-04-19 01:32:00,46.0,46.0,30.20,North,-999,0.0,0.0,99,0.07,,,0.48,,2013-04-19 08:32:00,
2013-04-19 01:41:00,46.0,46.0,30.20,NNW,337,0.0,3.0,99,0.08,,,0.49,,2013-04-19 08:41:00,
2013-04-19 01:51:00,46.0,46.0,30.20,NNW,337,0.0,3.0,99,0.08,,,0.49,,2013-04-19 08:51:00,
2013-04-19 02:01:00,46.0,46.0,30.19,SW,225,0.0,1.0,99,0.10,,,0.54,,2013-04-19 09:01:00,
2013-04-19 02:11:00,46.0,46.0,30.19,ESE,112,0.0,1.0,99,0.10,,,0.56,,2013-04-19 09:11:00,
2013-04-19 02:21:00,46.0,46.0,30.19,ESE,112,0.0,1.0,99,0.10,,,0.56,,2013-04-19 09:21:00,
2013-04-19 02:32:00,46.0,46.0,30.18,SW,225,0.0,2.0,99,0.10,,,0.59,,2013-04-19 09:32:00,
2013-04-19 02:42:00,46.0,46.0,30.18,SW,225,0.0,2.0,99,0.10,,,0.59,,2013-04-19 09:42:00,
2013-04-19 02:52:00,46.0,46.0,30.18,WSW,247,0.0,1.0,99,0.10,,,0.60,,2013-04-19 09:52:00,
2013-04-19 03:02:00,47.0,47.0,30.16,ESE,112,0.0,1.0,99,0.08,,,0.62,,2013-04-19 10:02:00,
2013-04-19 03:13:00,47.0,47.0,30.15,NE,45,0.0,2.0,99,0.08,,,0.64,,2013-04-19 10:13:00,
2013-04-19 03:23:00,47.0,47.0,30.15,NE,45,0.0,2.0,99,0.08,,,0.64,,2013-04-19 10:23:00,
2013-04-19 03:33:00,47.0,47.0,30.15,NNE,22,0.0,1.0,99,0.09,,,0.67,,2013-04-19 10:33:00,
2013-04-19 03:42:00,47.0,47.0,30.14,East,90,1.0,5.0,99,0.08,,,0.69,,2013-04-19 10:42:00,
2013-04-19 03:52:00,47.0,47.0,30.14,East,90,1.0,5.0,99,0.08,,,0.69,,2013-04-19 10:52:00,
2013-04-19 04:02:00,47.0,47.0,30.14,SE,135,0.0,1.0,99,0.08,,,0.70,,2013-04-19 11:02:00,
2013-04-19 04:11:00,47.0,47.0,30.14,SE,135,0.0,1.0,99,0.08,,,0.70,,2013-04-19 11:11:00,
2013-04-19 04:21:00,47.0,47.0,30.13,North,0,0.0,2.0,99,0.08,,,0.72,,2013-04-19 11:21:00,
2013-04-19 04:32:00,47.0,47.0,30.13,North,-999,0.0,0.0,99,0.07,,,0.74,,2013-04-19 11:32:00,
2013-04-19 04:42:00,47.0,47.0,30.13,North,-999,0.0,0.0,99,0.07,,,0.74,,2013-04-19 11:42:00,
2013-04-19 04:52:00,47.0,47.0,30.12,NE,45,0.0,3.0,99,0.08,,,0.77,,2013-04-19 11:52:00,
2013-04-19 05:02:00,47.0,47.0,30.12,NE,45,0.0,1.0,99,0.08,,,0.78,,2013-04-19 12:02:00,
2013-04-19 05:12:00,47.0,47.0,30.11,NNE,22,0.0,3.0,99,0.09,,,0.81,,2013-04-19 12:12:00,
2013-04-19 05:22:00,47.0,47.0,30.11,NNE,22,0.0,3.0,99,0.09,,,0.81,,2013-04-19 12:22:00,
2013-04-19 05:32:00,47.0,47.0,30.11,NNW,337,1.0,3.0,99,0.08,,,0.82,,2013-04-19 12:32:00,
2013-04-19 05:42:00,47.0,47.0,30.11,NNW,337,1.0,3.0,99,0.08,,,0.82,,2013-04-19 12:42:00,
2013-04-19 05:52:00,47.0,47.0,30.11,North,0,1.0,5.0,99,0.05,,,0.82,,2013-04-19 12:52:00,
2013-04-19 06:01:00,47.0,47.0,30.10,North,0,1.0,3.0,99,0.05,,,0.83,,2013-04-19 13:01:00,
2013-04-19 06:11:00,47.0,47.0,30.10,ENE,67,0.0,4.0,99,0.03,,,0.84,,2013-04-19 13:11:00,
2013-04-19 06:21:00,47.0,47.0,30.10,ENE,67,0.0,4.0,99,0.03,,,0.84,,2013-04-19 13:21:00,
2013-04-19 06:32:00,47.0,47.0,30.10,ENE,67,1.0,5.0,99,0.03,,,0.85,,2013-04-19 13:32:00,
2013-04-19 06:41:00,47.0,47.0,30.10,ENE,67,1.0,5.0,99,0.03,,,0.85,,2013-04-19 13:41:00,
2013-04-19 06:52:00,47.0,47.0,30.09,East,90,0.0,1.0,99,0.04,,,0.86,,2013-04-19 13:52:00,
2013-04-19 07:01:00,47.0,47.0,30.09,NNW,337,0.0,1.0,99,0.04,,,0.87,,2013-04-19 14:01:00,
2013-04-19 07:11:00,47.0,47.0,30.09,NE,45,1.0,4.0,99,0.04,,,0.88,,2013-04-19 14:11:00,
2013-04-19 07:21:00,47.0,47.0,30.09,NE,45,1.0,4.0,99,0.04,,,0.88,,2013-04-19 14:21:00,
2013-04-19 07:31:00,47.0,47.0,30.09,ENE,67,1.0,5.0,99,0.04,,,0.89,,2013-04-19 14:31:00,
2013-04-19 07:42:00,47.0,47.0,30.09,ENE,67,1.0,5.0,99,0.04,,,0.89,,2013-04-19 14:42:00,
2013-04-19 07:52:00,48.0,48.0,30.09,SSE,157,1.0,7.0,99,0.05,,,0.91,,2013-04-19 14:52:00,
2013-04-19 08:01:00,48.0,48.0,30.09,NNW,337,0.0,1.0,99,0.05,,,0.92,,2013-04-19 15:01:00,
2013-04-19 08:11:00,48.0,48.0,30.09,North,-999,0.0,0.0,99,0.07,,,0.95,,2013-04-19 15:11:00,
2013-04-19 08:21:00,48.0,48.0,30.09,North,-999,0.0,0.0,99,0.07,,,0.95,,2013-04-19 15:21:00,
2013-04-19 08:33:00,48.0,48.0,30.09,North,0,0.0,1.0,99,0.08,,,0.96,,2013-04-19 15:33:00,
2013-04-19 08:42:00,48.0,48.0,30.09,North,0,0.0,1.0,99,0.08,,,0.96,,2013-04-19 15:42:00,
2013-04-19 08:52:00,48.0,48.0,30.08,East,90,0.0,1.0,99,0.08,,,0.98,,2013-04-19 15:52:00,
2013-04-19 09:02:00,48.0,48.0,30.08,SW,225,0.0,1.0,99,0.07,,,0.98,,2013-04-19 16:02:00,
2013-04-19 09:12:00,48.0,48.0,30.08,WSW,247,0.0,1.0,99,0.05,,,0.99,,2013-04-19 16:12:00,
2013-04-19 09:22:00,48.0,48.0,30.08,WSW,247,0.0,1.0,99,0.05,,,0.99,,2013-04-19 16:22:00,
2013-04-19 09:32:00,48.0,48.0,30.08,North,0,0.0,1.0,99,0.04,,,1.00,,2013-04-19 16:32:00,
2013-04-19 09:42:00,48.0,48.0,30.08,NNW,337,0.0,1.0,99,0.02,,,1.00,,2013-04-19 16:42:00,
2013-04-19 09:52:00,48.0,48.0,30.08,NNW,337,0.0,1.0,99,0.02,,,1.00,,2013-04-19 16:52:00,
2013-04-19 10:02:00,48.0,48.0,30.08,NE,45,0.0,1.0,99,0.03,,,1.01,,2013-04-19 17:02:00,
2013-04-19 10:11:00,48.0,48.0,30.08,NE,45,0.0,1.0,99,0.03,,,1.01,,2013-04-19 17:11:00,
2013-04-19 10:21:00,49.0,49.0,30.08,WSW,247,0.0,2.0,99,0.04,,,1.03,,2013-04-19 17:21:00,
2013-04-19 10:32:00,49.0,49.0,30.08,NE,45,1.0,5.0,99,0.04,,,1.04,,2013-04-19 17:32:00,
2013-04-19 10:42:00,49.0,49.0,30.08,NE,45,1.0,5.0,99,0.04,,,1.04,,2013-04-19 17:42:00,
2013-04-19 10:52:00,49.0,49.0,30.08,NE,45,0.0,2.0,99,0.06,,,1.06,,2013-04-19 17:52:00,
2013-04-19 11:01:00,49.0,49.0,30.08,NNE,22,1.0,6.0,99,0.06,,,1.07,,2013-04-19 18:01:00,
2013-04-19 11:13:00,49.0,49.0,30.08,NNE,22,1.0,6.0,99,0.06,,,1.07,,2013-04-19 18:13:00,
2013-04-19 11:22:00,50.0,49.0,30.09,NE,45,1.0,5.0,98,0.06,,,1.09,,2013-04-19 18:22:00,
2013-04-19 11:32:00,50.0,49.0,30.09,SW,225,1.0,3.0,98,0.05,,,1.09,,2013-04-19 18:32:00,
2013-04-19 11:42:00,50.0,49.0,30.09,SW,225,1.0,3.0,98,0.05,,,1.09,,2013-04-19 18:42:00,
2013-04-19 11:52:00,50.0,49.0,30.09,North,0,0.0,5.0,98,0.05,,,1.11,,2013-04-19 18:52:00,
2013-04-19 12:01:00,50.0,49.0,30.10,West,270,1.0,3.0,98,0.05,,,1.12,,2013-04-19 19:01:00,
2013-04-19 12:11:00,50.0,49.0,30.10,ENE,67,0.0,1.0,97,0.06,,,1.15,,2013-04-19 19:11:00,
2013-04-19 12:21:00,50.0,49.0,30.10,ENE,67,0.0,1.0,97,0.06,,,1.15,,2013-04-19 19:21:00,
2013-04-19 12:31:00,50.0,49.0,30.10,ENE,67,1.0,4.0,98,0.07,,,1.16,,2013-04-19 19:31:00,
2013-04-19 12:41:00,50.0,49.0,30.10,ENE,67,1.0,4.0,98,0.07,,,1.16,,2013-04-19 19:41:00,
2013-04-19 12:52:00,50.0,49.0,30.10,NNE,22,0.0,2.0,98,0.08,,,1.19,,2013-04-19 19:52:00,
2013-04-19 13:01:00,51.0,50.0,30.10,West,270,0.0,2.0,98,0.08,,,1.20,,2013-04-19 20:01:00,
2013-04-19 13:11:00,51.0,50.0,30.10,WNW,292,1.0,6.0,97,0.06,,,1.21,,2013-04-19 20:11:00,
2013-04-19 13:21:00,51.0,50.0,30.10,WNW,292,1.0,6.0,97,0.06,,,1.21,,2013-04-19 20:21:00,
2013-04-19 13:31:00,51.0,50.0,30.10,North,-999,0.0,0.0,97,0.06,,,1.22,,2013-04-19 20:31:00,
2013-04-19 13:41:00,52.0,51.0,30.10,South,180,0.0,1.0,97,0.04,,,1.23,,2013-04-19 20:41:00,
2013-04-19 13:52:00,52.0,51.0,30.10,South,180,0.0,1.0,97,0.04,,,1.23,,2013-04-19 20:52:00,
2013-04-19 14:01:00,52.0,51.0,30.10,SW,225,0.0,1.0,97,0.03,,,1.23,,2013-04-19 21:01:00,
2013-04-19 14:11:00,52.0,51.0,30.11,ENE,67,1.0,2.0,96,0.03,,,1.24,,2013-04-19 21:11:00,
2013-04-19 14:21:00,52.0,51.0,30.11,ENE,67,1.0,2.0,96,0.03,,,1.24,,2013-04-19 21:21:00,
2013-04-19 14:32:00,51.0,50.0,30.11,WNW,292,0.0,3.0,97,0.04,,,1.26,,2013-04-19 21:32:00,
2013-04-19 14:42:00,51.0,50.0,30.11,WNW,292,0.0,3.0,97,0.04,,,1.26,,2013-04-19 21:42:00,
2013-04-19 14:52:00,52.0,51.0,30.11,NNE,22,0.0,1.0,98,0.05,,,1.28,,2013-04-19 21:52:00,
2013-04-19 15:02:00,52.0,51.0,30.11,NE,45,0.0,2.0,97,0.05,,,1.28,,2013-04-19 22:02:00,
2013-04-19 15:12:00,53.0,52.0,30.12,North,-999,0.0,0.0,97,0.04,,,1.28,,2013-04-19 22:12:00,
2013-04-19 15:22:00,53.0,52.0,30.12,North,-999,0.0,0.0,97,0.04,,,1.28,,2013-04-19 22:22:00,
2013-04-19 15:33:00,53.0,52.0,30.12,SW,225,0.0,3.0,96,0.03,,,1.29,,2013-04-19 22:33:00,
2013-04-19 15:41:00,53.0,52.0,30.12,West,270,0.0,2.0,97,0.01,,,1.28,,2013-04-19 22:41:00,
2013-04-19 15:52:00,53.0,52.0,30.12,West,270,0.0,2.0,97,0.01,,,1.28,,2013-04-19 22:52:00,
2013-04-19 16:02:00,52.0,51.0,30.12,NE,45,0.0,2.0,95,0.01,,,1.28,,2013-04-19 23:02:00,
2013-04-19 16:11:00,52.0,51.0,30.12,NE,45,0.0,2.0,95,0.01,,,1.28,,2013-04-19 23:11:00,
2013-04-19 16:22:00,52.0,51.0,30.12,WSW,247,0.0,2.0,96,0.01,,,1.28,,2013-04-19 23:22:00,
2013-04-19 16:31:00,51.0,50.0,30.12,WSW,247,0.0,1.0,97,0.00,,,1.27,,2013-04-19 23:31:00,
2013-04-19 16:42:00,51.0,50.0,30.12,WSW,247,0.0,1.0,97,0.00,,,1.27,,2013-04-19 23:42:00,
2013-04-19 16:52:00,51.0,50.0,30.12,West,270,0.0,1.0,97,0.02,,,1.28,,2013-04-19 23:52:00,
2013-04-19 17:01:00,51.0,50.0,30.13,ENE,67,0.0,1.0,97,0.04,,,1.30,,2013-04-20 00:01:00,
2013-04-19 17:11:00,51.0,50.0,30.13,ENE,67,0.0,1.0,97,0.04,,,1.30,,2013-04-20 00:11:00,
2013-04-19 17:21:00,50.0,49.0,30.13,ENE,67,0.0,1.0,98,0.06,,,1.32,,2013-04-20 00:21:00,
2013-04-19 17:31:00,50.0,49.0,30.14,WNW,292,1.0,3.0,98,0.08,,,1.33,,2013-04-20 00:31:00,
2013-04-19 17:41:00,50.0,49.0,30.14,WNW,292,1.0,3.0,98,0.08,,,1.33,,2013-04-20 00:41:00,
2013-04-19 17:51:00,50.0,49.0,30.14,ENE,67,0.0,1.0,98,0.08,,,1.33,,2013-04-20 00:51:00,
2013-04-19 18:01:00,50.0,49.0,30.14,North,-999,0.0,0.0,98,0.06,,,1.32,,2013-04-20 01:01:00,
2013-04-19 18:11:00,50.0,49.0,30.14,North,-999,0.0,0.0,98,0.06,,,1.32,,2013-04-20 01:11:00,
2013-04-19 18:21:00,49.0,48.0,30.15,West,270,1.0,2.0,98,0.06,,,1.34,,2013-04-20 01:21:00,
2013-04-19 18:31:00,49.0,48.0,30.15,North,0,0.0,1.0,98,0.05,,,1.34,,2013-04-20 01:31:00,
2013-04-19 18:41:00,49.0,48.0,30.15,North,0,0.0,1.0,98,0.05,,,1.34,,2013-04-20 01:41:00,
2013-04-19 18:52:00,48.0,47.0,30.15,NE,45,0.0,2.0,98,0.07,,,1.35,,2013-04-20 01:52:00,
2013-04-19 19:01:00,48.0,48.0,30.15,North,-999,0.0,0.0,99,0.10,,,1.37,,2013-04-20 02:01:00,
2013-04-19 19:11:00,48.0,48.0,30.15,NE,45,0.0,2.0,99,0.10,,,1.37,,2013-04-20 02:11:00,
2013-04-19 19:21:00,48.0,48.0,30.15,NE,45,0.0,2.0,99,0.10,,,1.37,,2013-04-20 02:21:00,
2013-04-19 19:31:00,48.0,48.0,30.15,North,-999,0.0,0.0,99,0.09,,,1.36,,2013-04-20 02:31:00,
2013-04-19 19:42:00,48.0,48.0,30.15,North,-999,0.0,0.0,99,0.09,,,1.36,,2013-04-20 02:42:00,
2013-04-19 19:52:00,48.0,48.0,30.15,North,0,0.0,1.0,99,0.07,,,1.35,,2013-04-20 02:52:00,
2013-04-19 20:01:00,48.0,48.0,30.15,West,270,0.0,1.0,99,0.04,,,1.33,,2013-04-20 03:01:00,
2013-04-19 20:11:00,48.0,48.0,30.16,West,270,0.0,2.0,99,0.01,,,1.30,,2013-04-20 03:11:00,
2013-04-19 20:21:00,48.0,48.0,30.16,West,270,0.0,2.0,99,0.01,,,1.30,,2013-04-20 03:21:00,
2013-04-19 20:32:00,47.0,47.0,30.16,North,-999,0.0,0.0,99,0.01,,,1.29,,2013-04-20 03:32:00,
2013-04-19 20:43:00,47.0,47.0,30.16,North,-999,0.0,0.0,99,0.00,,,1.27,,2013-04-20 03:43:00,
2013-04-19 20:52:00,47.0,47.0,30.16,North,-999,0.0,0.0,99,0.00,,,1.27,,2013-04-20 03:52:00,
2013-04-19 21:02:00,47.0,47.0,30.17,North,-999,0.0,0.0,99,0.00,,,1.27,,2013-04-20 04:02:00,
2013-04-19 21:12:00,47.0,47.0,30.17,North,-999,0.0,0.0,99,0.00,,,1.27,,2013-04-20 04:12:00,
2013-04-19 21:22:00,47.0,47.0,30.17,West,270,0.0,4.0,99,0.00,,,1.26,,2013-04-20 04:22:00,
2013-04-19 21:32:00,47.0,47.0,30.18,East,90,0.0,1.0,99,0.00,,,1.26,,2013-04-20 04:32:00,
2013-04-19 21:42:00,47.0,47.0,30.18,East,90,0.0,1.0,99,0.00,,,1.26,,2013-04-20 04:42:00,
2013-04-19 21:52:00,47.0,47.0,30.18,North,-999,0.0,0.0,99,0.00,,,1.25,,2013-04-20 04:52:00,
2013-04-19 22:01:00,46.0,46.0,30.18,North,-999,0.0,0.0,99,0.01,,,1.26,,2013-04-20 05:01:00,
2013-04-19 22:12:00,46.0,46.0,30.18,North,-999,0.0,0.0,99,0.01,,,1.26,,2013-04-20 05:12:00,
2013-04-19 22:21:00,46.0,46.0,30.18,North,-999,0.0,0.0,99,0.01,,,1.26,,2013-04-20 05:21:00,
2013-04-19 22:32:00,46.0,46.0,30.19,North,-999,0.0,0.0,99,0.02,,,1.26,,2013-04-20 05:32:00,
2013-04-19 22:42:00,46.0,46.0,30.19,North,-999,0.0,0.0,99,0.02,,,1.26,,2013-04-20 05:42:00,
2013-04-19 22:51:00,46.0,46.0,30.19,North,-999,0.0,0.0,99,0.02,,,1.25,,2013-04-20 05:51:00,
2013-04-19 23:01:00,46.0,46.0,30.19,North,-999,0.0,0.0,99,0.01,,,1.24,,2013-04-20 06:01:00,
2013-04-19 23:12:00,46.0,46.0,30.19,North,-999,0.0,0.0,99,0.01,,,1.24,,2013-04-20 06:12:00,
2013-04-19 23:21:00,46.0,46.0,30.19,West,270,0.0,1.0,99,0.01,,,1.22,,2013-04-20 06:21:00,
2013-04-19 23:31:00,46.0,46.0,30.20,North,-999,0.0,0.0,99,0.00,,,1.20,,2013-04-20 06:31:00,
2013-04-19 23:42:00,46.0,46.0,30.20,North,-999,0.0,0.0,99,0.00,,,1.20,,2013-04-20 06:42:00,
2013-04-19 23:52:00,46.0,46.0,30.20,North,-999,0.0,0.0,99,0.00,,,1.19,,2013-04-20 06:52:00,